Regional Weather Roundup
Issued by NWS

Home | Current Version | Previous Version | Text Only | Print | Product List | Glossary On
Versions: 1 2 3 4 5 6 7 8 9 10 11 12 13 14 15 16 17 18 19 20 21 22 23 24 25 26 27 28 29 30 31 32 33 34 35 36 37 38 39 40 41 42 43 44 45 46 47 48 49 50
000
ASUS42 KTBW 261717
RWRFL
FLORIDA REGIONAL WEATHER ROUNDUP
NATIONAL WEATHER SERVICE TAMPA BAY RUSKIN FL
100 PM EDT MON SEP 26 2016

NOTE: "FAIR" INDICATES FEW OR NO CLOUDS BELOW 12,000 FEET WITH NO
SIGNIFICANT WEATHER AND/OR OBSTRUCTIONS TO VISIBILITY.

FLZ001>010-012>015-112-114-115-261800-
PANHANDLE FLORIDA

CITY           SKY/WX    TMP DP  RH WIND       PRES   REMARKS
PENSACOLA      MOSUNNY   86  74  67 SE12      30.01R
PENSACOLA NAS  PTSUNNY   85  74  69 E7        30.01R
MILTON NAS     PTSUNNY   86  74  67 S8        30.01
CRESTVIEW      SUNNY     88  68  51 E3        30.03F
DUKE FIELD     PTSUNNY   81  66  61 S7        30.01F THUNDER
VALPARAISO     PTSUNNY   86  61  42 W3        30.01F
MARY ESTHER    LGT RAIN  73  69  85 E7        30.01F
TRI COUNTY     FAIR      86  71  60 W3        30.03F
PANAMA CITY    MOSUNNY   86  72  62 NW6       30.01F
TYNDALL AFB    MOSUNNY   86  72  61 VRB5      30.01F
APALACHICOLA   MOSUNNY   89  77  67 SE9       30.00F HX 101

STATION/POSITION SKY/WX   TEMP    WIND        PRES    WAVE   SWELL
                          AIR SEA DIR/SP/G            HT/PER HT/PER
                          (F)     (DEG/KT/KT) (MB)    (FT/S) (FT/S)
30.1N   87.6W              83 86  310/  4/  6 1016.5R   1/ 4
29.2N   88.2W              82 85   30/ 10/ 12 1016.4R
28.8N   86.0W              84 87              1016.5F   0
PANAMA CITY BEAC           83 85  190/  4/  5 1017.1F
TOWER C                    81     130/  2/  3 1016.6F
28.5N   84.5W              84 86   90/  2/  4 1016.1F   1/ 4   2/ 4

$$
FLZ011-016>038-118-127-128-134-139-239-261800-
NORTH FLORIDA

CITY           SKY/WX    TMP DP  RH WIND       PRES   REMARKS
MARIANNA       PTSUNNY   87  72  60 SE5       30.01F
TALLAHASSEE    PTSUNNY   90  71  53 VRB3      30.02F HX  96
PERRY          SUNNY     89  72  58 CALM      30.02F HX  95
CROSS CITY     MOSUNNY   86  72  62 N8        30.01S
LAKE CITY      PTSUNNY   82  72  69 CALM      30.01F
GAINESVILLE    PTSUNNY   87  72  60 NW6       30.00F
WILLISTON      SUNNY     91  72  52 CALM      30.00F HX  98
PALATKA        FAIR      86  73  66 N5        30.00F
MAYPORT NAS    PTSUNNY   83  74  74 NE10      30.01F
JACKSONVILLE   PTSUNNY   85  72  65 E10G22    30.01F
JAX NAS        PTSUNNY   87  70  56 N9        30.01F
FERNANDINA BEA FAIR      84  73  70 NE13      30.01R
ST AUGUSTINE   MOSUNNY   84  72  67 VRB6      30.00F
PALM COAST     PTSUNNY  N/A N/A N/A VRB6      29.99F

STATION/POSITION SKY/WX   TEMP    WIND        PRES    WAVE   SWELL
                          AIR SEA DIR/SP/G            HT/PER HT/PER
                          (F)     (DEG/KT/KT) (MB)    (FT/S) (FT/S)
SHELL POINT                83     110/  4/  7 1015.6
KEATON BEACH               86      CALM  /  2 1015.9F
CEDAR KEY                  82     130/  4/  5 1016.8F
FERNANDINA                 81 84   50/  4/  8 1016.7R
30.7N   81.3W                 82                N/A     4/ 5
MAYPORT                    80 84   40/ 10/ 12 1016.7F
31.4N   80.9W              79 82   70/ 16/ 19 1016.6F   4/ 5   2/ 9
ST AUGUSTINE               81 84   20/  6/  6 1016.4F

$$
FLZ040-043>046-052-053-057-058-063-144-261800-
INTERIOR CENTRAL FLORIDA

CITY           SKY/WX    TMP DP  RH WIND       PRES   REMARKS
OCALA          PTSUNNY   88  72  58 NW5       30.01F
THE VILLAGES     N/A     86  81  84 MISG      29.90F HX 102
LEESBURG       MOSUNNY   89  72  56 VRB6      30.00F HX  96
SANFORD        LGT RAIN  87  71  58 CALM      29.99F
ORLANDO EXEC   PTSUNNY   79  75  87 SE10      30.00F THUNDER
ORLANDO INTL   TSTM      86  71  60 VRB3      29.99F
KISSIMMEE      MOSUNNY   88  71  57 CALM      30.00F
WINTER HAVEN   PTSUNNY   88  69  53 CALM      30.00F
LAKELAND       MOSUNNY   88  73  62 CALM      30.00F HX  96
BARTOW         PTSUNNY   88  70  55 S6        29.99F
OKEECHOBEE     PTSUNNY   84  72  65 E3        30.01F

$$
FLZ041-047-054-059-064-141-147-261800-
EAST CENTRAL FLORIDA

CITY           SKY/WX    TMP DP  RH WIND       PRES   REMARKS
ORMOND BEACH   MOSUNNY   86  72  62 W6        29.99F
DAYTONA BEACH  MOSUNNY   89  71  55 VRB6      29.99F HX  95
DELAND         MOSUNNY   86  72  62 N7        29.99F
NEW SMYRNA BEA MOSUNNY   86  73  66 NE9       30.02F
JFK SPACE CTR  PTSUNNY   88  74  63 E8        29.99F HX  96
TITUSVILLE     MOSUNNY   84  72  65 E9        30.00F
CAPE CANAVERAL SUNNY     86  71  61 E5        29.99F
PATRICK AFB    MOSUNNY   84  74  71 E5        29.99F
MELBOURNE      PTSUNNY   86  73  65 E7        29.99F
VERO BEACH     MOSUNNY   87  73  62 SE8       30.00F
FT PIERCE      MOSUNNY   87  73  62 E10       30.00F
STUART         MOSUNNY   86  73  66 E7        30.02S

STATION/POSITION SKY/WX   TEMP    WIND        PRES    WAVE   SWELL
                          AIR SEA DIR/SP/G            HT/PER HT/PER
                          (F)     (DEG/KT/KT) (MB)    (FT/S) (FT/S)
28.5N   80.2W              81 85  360/  2/  4 1016.9S
TRIDENT PIER               85 85  150/  4/  5 1016.6F
28.4N   80.5W                 86                N/A     2/ 9
27.5N   80.2W                 87                N/A     2/ 9

$$
FLZ050-056-061-142-242-148-248-149-249-151-251-155-255-
160-260-261800-
WEST CENTRAL FLORIDA

CITY           SKY/WX    TMP DP  RH WIND       PRES   REMARKS
CRYSTAL RIVER  FAIR      86  72  62 CALM      30.00F
INVERNESS      FAIR      86  75  70 N7        30.01F HX  95
BROOKSVILLE    MOSUNNY   88  73  61 N8        30.00F HX  95
CLEARWATER AIR FAIR      86  77  74 W6        29.98S HX  97
ST PETE CLEARW MOSUNNY   85  75  72 NE7       29.98F
TAMPA INTL     MOSUNNY   87  75  67 SW7       29.99F HX  96
TAMPA EXEC     SUNNY     90  73  58 CALM      29.99F HX  98
PLANT CITY     PTSUNNY   91  75  59 CALM      30.00F HX 102
MACDILL AFB    SUNNY     92  79  67 W2        29.98F HX 108
PETER O KNIGHT SUNNY     90  77  66 S5        29.98F HX 102
ST PETERSBURG  SUNNY     87  75  67 S8        29.96F HX  96
SARASOTA       MOSUNNY   90  75  61 SW9       29.96F HX 100
VENICE         FAIR      86  77  74 S10       29.98F HX  97

STATION/POSITION SKY/WX   TEMP    WIND        PRES    WAVE   SWELL
                          AIR SEA DIR/SP/G            HT/PER HT/PER
                          (F)     (DEG/KT/KT) (MB)    (FT/S) (FT/S)
27.3N   84.2W                 87                N/A     1
CLEARWATER BEACH           83 86  220/  9/ 11 1015.8F
MIDDLE TAMPA BAY                  240/  4/  5 1016.2F
VENICE                     83 87  170/ 11/ 12 1014.7F

$$
FLZ066-069-070-075>078-162-262-165-265-261800-
SOUTHWEST FLORIDA AND KEYS

CITY           SKY/WX    TMP DP  RH WIND       PRES   REMARKS
PUNTA GORDA    MOSUNNY   86  74  67 VRB5      30.00F
FT MYERS       MOSUNNY   87  72  60 VRB3      29.98F
SOUTHWEST INTL MOSUNNY   84  73  69 S3        29.99F
NAPLES         CLOUDY    85  74  69 CALM      29.98F
MARATHON       TSTM      76  73  91 S9G20     29.99F
KEY WEST NAS   CLOUDY    78  72  81 S12       30.01R THUNDER
KEY WEST INTL  RAIN      78  76  93 CALM      30.01S FOG

STATION/POSITION SKY/WX   TEMP    WIND        PRES    WAVE   SWELL
                          AIR SEA DIR/SP/G            HT/PER HT/PER
                          (F)     (DEG/KT/KT) (MB)    (FT/S) (FT/S)
NAPLES                        87              1015.8F
26.0N   85.6W              83 87  100/  4/  6 1015.9F   1
DRY TORTUGAS               85      60/  4/  5 1015.0F
SAND KEY                   80     310/  7/  9 1016.8R
LONG KEY                   76 86  130/ 21/ 24 1016.9R
MOLASSES REEF              80 85  110/  1/  2 1016.0F

$$
FLZ067-068-071>074-168-172>174-261800-
SOUTHEAST FLORIDA

CITY           SKY/WX    TMP DP  RH WIND       PRES   REMARKS
W PALM BEACH   PTSUNNY   87  71  58 E6        29.99F
BOCA RATON     MOSUNNY   86  75  70 E8        29.99F HX  95
FT LAUDER-EXEC MOSUNNY   86  71  60 SE8       29.98F
FT LAUDERDALE  PTSUNNY   84  74  71 S8        29.98F THUNDER
POMPANO BEACH  MOSUNNY   87  75  67 SE10      29.98F HX  96
PEMBROKE PINES TSTM      76  72  87 SE5       30.01S FOG
OPA LOCKA      CLOUDY    81  75  82 CALM      30.00F THUNDER
MIAMI          CLOUDY    86  76  71 S6        30.00F THUNDER HX  96
WEST KENDALL   PTSUNNY   80  76  87 S7        29.99F
HOMESTEAD      CLOUDY    83  76  78 S6        29.98F

STATION/POSITION SKY/WX   TEMP    WIND        PRES    WAVE   SWELL
                          AIR SEA DIR/SP/G            HT/PER HT/PER
                          (F)     (DEG/KT/KT) (MB)    (FT/S) (FT/S)
PORT EVERGLADES            85      90/  3/  5 1016.3F
VIRGINIA KEY               83 90  170/  6/  8 1016.7F
LAKE WORTH                         30/  4/  5   N/A
FOWEY ROCKS                82 85  180/ 11/ 12 1016.3F
SETTLEMENT POINT           84      10/  3/  4 1016.3F

$$




USA.gov is the U.S. government's official web portal to all federal, state and local government web resources and services.